QPF
0.00 0.00 0.00 0.00 0.00 0.01 0.01 0.01 0.00 0.00 0.00 0.00 0.00 0.00 0.00 0.00 0.00 0.00 0.00 0.00 0.00 0.00 0.00 0.00 0.00 0.00 0.00 0.00 0.00 0.00 0.00 0.00 0.00 0.00 0.00 0.00 0.00 0.00 0.00 0.00 0.00 0.00 0.00
0.00 0.00 0.00 0.00 0.00 0.00 0.00 0.00 0.00 0.00 0.00 0.00 0.00 0.00 0.00 0.00 0.00 0.00 0.00 0.00 0.00 0.00 0.00 0.00 0.00 0.00 0.00 0.00 0.00 0.00 0.00 0.00 0.00 0.00 0.00 0.00 0.00 0.00 0.00 0.00 0.00 0.00 0.00
0.00 0.00 0.00 0.00 0.00 0.00 0.00 0.00 0.00 0.00 0.00 0.00 0.00 0.00 0.00 0.00 0.00 0.00 0.00 0.00 0.00 0.00 0.00 0.00 0.00 0.00 0.00 0.00 0.00 0.00 0.00 0.00 0.00 0.00 0.00 0.00 0.00 0.00 0.00 0.00 0.00 0.00 0.00
0.00 0.00 0.00 0.00 0.00 0.00 0.00 0.00 0.00 0.00 0.01 0.06 0.03 0.03 0.01 0.00 0.00 0.01 0.05 0.16 0.12 0.10 0.05 0.01 0.00 0.00 0.00 0.00 0.00 0.00 0.00 0.00 0.00 0.00 0.00 0.00 0.00 0.00 0.00 0.00 0.00 0.00 0.00
0.00 0.00 0.00 0.00 0.00 0.00 0.00 0.00 0.00 0.01 0.02 0.05 0.07 0.07 0.06 0.05 0.02 0.01 0.06 0.14 0.27 0.29 0.24 0.11 0.02 0.00 0.00 0.00 0.00 0.00 0.00 0.00 0.00 0.00 0.00 0.00 0.00 0.00 0.00 0.00 0.00 0.00 0.00
0.00 0.00 0.00 0.00 0.00 0.00 0.00 0.00 0.00 0.00 0.00 0.00 0.02 0.03 0.03 0.02 0.02 0.01 0.02 0.03 0.05 0.06 0.09 0.08 0.06 0.02 0.00 0.00 0.00 0.00 0.00 0.00 0.00 0.00 0.00 0.00 0.00 0.00 0.00 0.00 0.00 0.00 0.00
0.00 0.00 0.00 0.00 0.00 0.00 0.00 0.00 0.00 0.00 0.00 0.00 0.00 0.00 0.00 0.01 0.02 0.01 0.01 0.01 0.02 0.03 0.04 0.02 0.01 0.00 0.00 0.00 0.00 0.00 0.00 0.00 0.00 0.00 0.00 0.00 0.00 0.00 0.00 0.00 0.00 0.00 0.00
0.00 0.00 0.00 0.00 0.00 0.00 0.00 0.00 0.00 0.00 0.00 0.00 0.00 0.00 0.00 0.00 0.01 0.01 0.01 0.03 0.04 0.05 0.06 0.02 0.00 0.00 0.00 0.00 0.00 0.00 0.00 0.00 0.00 0.00 0.00 0.00 0.00 0.00 0.00 0.00 0.00 0.00 0.00
0.00 0.00 0.00 0.00 0.00 0.00 0.00 0.00 0.00 0.00 0.00 0.00 0.00 0.00 0.00 0.00 0.00 0.00 0.00 0.01 0.03 0.04 0.05 0.04 0.02 0.00 0.00 0.00 0.00 0.00 0.00 0.00 0.00 0.00 0.00 0.00 0.00 0.00 0.00 0.00 0.00 0.00 0.00
0.00 0.00 0.00 0.00 0.00 0.00 0.00 0.00 0.00 0.00 0.00 0.00 0.00 0.01 0.01 0.00 0.00 0.00 0.00 0.00 0.02 0.03 0.03 0.01 0.02 0.01 0.00 0.00 0.00 0.00 0.00 0.00 0.00 0.00 0.00 0.00 0.00 0.00 0.00 0.00 0.00 0.00 0.00
0.00 0.00 0.00 0.00 0.00 0.00 0.00 0.00 0.00 0.00 0.00 0.00 0.00 0.01 0.02 0.03 0.01 0.00 0.00 0.00 0.01 0.03 0.01 0.01 0.01 0.00 0.00 0.00 0.00 0.00 0.00 0.01 0.01 0.00 0.00 0.00 0.00 0.00 0.00 0.00 0.00 0.00 0.00
0.00 0.00 0.00 0.00 0.00 0.00 0.00 0.00 0.00 0.00 0.00 0.00 0.01 0.00 0.00 0.01 0.01 0.00 0.00 0.00 0.00 0.01 0.03 0.04 0.03 0.01 0.00 0.00 0.00 0.00 0.00 0.01 0.04 0.01 0.00 0.00 0.00 0.00 0.00 0.00 0.00 0.00 0.00
0.00 0.00 0.00 0.00 0.00 0.00 0.00 0.00 0.00 0.00 0.00 0.00 0.00 0.00 0.00 0.00 0.00 0.00 0.00 0.00 0.00 0.00 0.00 0.02 0.05 0.04 0.01 0.00 0.00 0.00 0.00 0.00 0.01 0.01 0.00 0.00 0.00 0.00 0.00 0.00 0.00 0.00 0.00
0.01 0.01 0.01 0.01 0.00 0.00 0.00 0.00 0.00 0.00 0.00 0.00 0.00 0.00 0.00 0.00 0.00 0.00 0.00 0.00 0.00 0.00 0.00 0.00 0.00 0.00 0.01 0.00 0.00 0.00 0.00 0.00 0.01 0.01 0.00 0.00 0.00 0.00 0.00 0.00 0.00 0.00 0.00
0.01 0.01 0.01 0.01 0.01 0.01 0.01 0.00 0.00 0.00 0.00 0.00 0.00 0.00 0.00 0.00 0.00 0.00 0.00 0.00 0.00 0.00 0.00 0.00 0.00 0.00 0.00 0.00 0.00 0.00 0.00 0.00 0.00 0.01 0.00 0.00 0.00 0.00 0.00 0.00 0.00 0.00 0.00
0.01 0.01 0.01 0.01 0.01 0.01 0.01 0.01 0.00 0.00 0.00 0.00 0.00 0.00 0.00 0.00 0.00 0.00 0.00 0.00 0.00 0.00 0.00 0.00 0.00 0.00 0.00 0.00 0.00 0.00 0.00 0.00 0.00 0.00 0.00 0.00 0.00 0.00 0.00 0.01 0.00 0.00 0.00
0.01 0.01 0.02 0.01 0.01 0.01 0.01 0.01 0.01 0.01 0.00 0.00 0.00 0.00 0.00 0.00 0.00 0.00 0.00 0.00 0.00 0.00 0.00 0.00 0.00 0.00 0.00 0.00 0.00 0.00 0.00 0.00 0.00 0.00 0.00 0.00 0.00 0.00 0.00 0.00 0.01 0.01 0.00
0.01 0.01 0.02 0.01 0.01 0.01 0.01 0.01 0.01 0.01 0.01 0.00 0.00 0.00 0.00 0.00 0.00 0.00 0.00 0.00 0.00 0.00 0.00 0.00 0.00 0.00 0.00 0.00 0.00 0.00 0.00 0.00 0.00 0.00 0.00 0.00 0.00 0.00 0.00 0.00 0.00 0.01 0.01
0.01 0.01 0.01 0.01 0.01 0.01 0.01 0.01 0.01 0.01 0.01 0.01 0.01 0.00 0.00 0.00 0.00 0.00 0.00 0.00 0.00 0.00 0.00 0.00 0.00 0.00 0.00 0.00 0.00 0.00 0.00 0.00 0.00 0.00 0.00 0.00 0.00 0.00 0.00 0.00 0.00 0.00 0.01
0.00 0.00 0.00 0.01 0.01 0.01 0.01 0.01 0.01 0.01 0.01 0.01 0.01 0.00 0.00 0.00 0.00 0.00 0.00 0.00 0.00 0.00 0.00 0.00 0.00 0.00 0.00 0.00 0.00 0.00 0.00 0.00 0.00 0.00 0.00 0.00 0.00 0.00 0.00 0.00 0.00 0.00 0.01
0.00 0.00 0.00 0.00 0.00 0.00 0.00 0.01 0.01 0.01 0.00 0.00 0.00 0.00 0.00 0.01 0.01 0.01 0.01 0.00 0.00 0.00 0.00 0.00 0.00 0.00 0.00 0.00 0.00 0.00 0.00 0.00 0.00 0.00 0.00 0.00 0.00 0.00 0.00 0.00 0.00 0.00 0.01
0.00 0.00 0.00 0.00 0.00 0.00 0.00 0.00 0.00 0.00 0.00 0.00 0.00 0.00 0.00 0.00 0.01 0.01 0.01 0.00 0.00 0.00 0.00 0.00 0.00 0.00 0.00 0.00 0.00 0.00 0.00 0.00 0.00 0.00 0.00 0.00 0.00 0.00 0.00 0.00 0.00 0.00 0.01
0.00 0.00 0.00 0.00 0.00 0.00 0.00 0.00 0.00 0.00 0.00 0.00 0.00 0.00 0.00 0.00 0.00 0.01 0.01 0.00 0.01 0.00 0.00 0.00 0.00 0.00 0.00 0.00 0.00 0.00 0.00 0.00 0.00 0.00 0.00 0.00 0.00 0.00 0.00 0.00 0.00 0.01 0.01
0.00 0.00 0.00 0.00 0.00 0.00 0.00 0.00 0.00 0.00 0.00 0.00 0.00 0.00 0.00 0.00 0.00 0.00 0.00 0.00 0.00 0.01 0.00 0.00 0.00 0.00 0.00 0.00 0.00 0.00 0.00 0.00 0.00 0.00 0.00 0.01 0.00 0.00 0.00 0.00 0.00 0.01 0.01
0.00 0.00 0.00 0.00 0.00 0.00 0.00 0.00 0.00 0.00 0.00 0.00 0.00 0.00 0.00 0.00 0.00 0.00 0.00 0.00 0.00 0.00 0.00 0.00 0.00 0.00 0.00 0.00 0.00 0.00 0.00 0.00 0.00 0.00 0.01 0.01 0.01 0.01 0.00 0.01 0.01 0.03 0.00
0.00 0.00 0.00 0.00 0.00 0.00 0.00 0.00 0.00 0.00 0.00 0.00 0.00 0.00 0.00 0.00 0.00 0.00 0.00 0.00 0.00 0.00 0.00 0.00 0.00 0.00 0.00 0.00 0.00 0.00 0.00 0.00 0.00 0.00 0.01 0.02 0.02 0.02 0.01 0.01 0.02 0.04 0.00
MSLP
1012.22 1011.93 1011.49 1011.10 1010.78 1010.61 1010.22 1009.51 1009.51 1009.49 1009.37 1009.34 1009.50 1010.10 1010.55 1010.84 1011.23 1011.66 1011.79 1012.09 1012.87 1013.28 1013.63 1014.03 1014.45 1014.50 1014.53 1014.74 1014.93 1015.05 1015.06 1015.28 1014.85 1015.91 1017.27 1018.48 1019.34 1019.80 1020.36 1020.77 1021.21 1021.79 1022.14
1012.46 1012.10 1011.97 1011.72 1011.48 1011.41 1011.29 1010.72 1010.14 1009.23 1009.07 1009.09 1008.96 1009.12 1009.52 1009.96 1010.43 1010.92 1011.30 1011.23 1011.74 1012.38 1012.92 1013.37 1013.68 1014.11 1014.47 1014.56 1014.67 1014.96 1014.97 1015.29 1015.16 1015.62 1017.36 1018.56 1019.56 1020.20 1020.71 1021.18 1021.54 1021.90 1022.31
1012.89 1012.34 1011.87 1011.75 1011.62 1011.64 1011.54 1011.29 1010.95 1010.32 1009.52 1008.96 1008.70 1008.50 1008.68 1009.08 1009.54 1010.02 1010.39 1010.82 1011.22 1011.42 1011.55 1012.24 1012.73 1013.33 1013.88 1013.96 1014.43 1014.58 1014.83 1015.35 1015.53 1015.45 1016.67 1018.10 1019.50 1020.31 1020.82 1021.25 1021.57 1021.89 1022.31
1012.91 1012.54 1012.23 1012.11 1011.88 1011.54 1011.50 1011.36 1011.04 1010.84 1010.54 1010.12 1009.40 1009.02 1009.00 1009.17 1009.29 1009.58 1009.80 1010.02 1010.46 1010.94 1011.36 1011.19 1011.72 1012.54 1013.23 1013.67 1014.20 1014.52 1014.72 1014.99 1015.30 1015.57 1016.04 1017.39 1018.27 1019.73 1020.16 1020.68 1021.43 1021.83 1022.09
1012.93 1012.59 1012.30 1012.13 1011.90 1011.64 1011.52 1011.14 1010.91 1010.89 1010.66 1010.64 1010.20 1010.08 1010.21 1010.15 1009.85 1009.78 1010.04 1010.47 1010.17 1011.45 1012.46 1010.91 1012.02 1012.61 1012.71 1013.38 1013.52 1014.17 1014.51 1014.90 1014.98 1014.99 1015.19 1015.84 1017.26 1018.74 1019.01 1019.67 1020.43 1021.30 1021.78
1012.99 1012.56 1012.22 1011.87 1011.60 1011.34 1011.26 1011.19 1011.16 1010.74 1010.39 1010.36 1010.38 1010.28 1010.26 1009.72 1010.32 1010.25 1010.83 1010.62 1009.45 1011.18 1012.19 1011.51 1012.36 1014.70 1014.37 1013.94 1013.65 1013.84 1014.27 1014.45 1014.41 1014.35 1014.57 1014.95 1015.52 1016.51 1017.31 1018.50 1019.73 1020.67 1021.30
1012.87 1012.50 1012.01 1011.53 1011.24 1010.98 1010.82 1010.71 1010.69 1010.64 1010.58 1010.25 1009.97 1009.85 1010.16 1010.09 1010.04 1010.22 1010.15 1009.41 1008.81 1009.92 1011.56 1011.60 1013.27 1014.26 1015.30 1015.09 1014.24 1013.92 1014.24 1014.19 1014.44 1014.66 1014.81 1015.33 1015.34 1015.37 1016.15 1017.59 1018.53 1019.45 1019.92
1012.34 1012.03 1011.68 1011.32 1010.95 1010.67 1010.47 1010.35 1010.21 1009.99 1009.99 1010.14 1010.00 1009.78 1009.47 1009.47 1009.85 1010.21 1010.02 1009.85 1009.07 1009.55 1009.73 1010.30 1011.42 1012.87 1013.55 1014.52 1013.94 1013.81 1013.77 1014.05 1014.40 1014.72 1014.87 1015.19 1015.66 1015.38 1015.60 1016.46 1017.25 1019.02 1020.05
1011.84 1011.52 1011.28 1011.04 1010.85 1010.72 1010.42 1010.12 1009.87 1009.59 1009.33 1009.11 1008.88 1009.27 1009.11 1008.71 1009.39 1009.78 1009.71 1009.84 1009.36 1009.46 1009.24 1009.40 1010.15 1011.65 1011.80 1012.73 1012.51 1012.73 1012.87 1013.06 1013.96 1015.04 1015.69 1016.01 1016.06 1015.91 1015.22 1016.04 1017.35 1018.37 1019.15
1011.05 1010.77 1010.62 1010.64 1010.69 1010.57 1010.37 1010.04 1009.71 1009.31 1008.64 1008.54 1008.05 1007.96 1008.11 1008.59 1008.74 1009.03 1009.52 1009.61 1009.50 1009.43 1009.27 1008.85 1009.82 1009.94 1010.34 1011.24 1010.61 1011.11 1011.70 1012.20 1012.99 1014.41 1015.65 1015.99 1015.66 1015.77 1016.01 1015.46 1015.81 1016.60 1017.47
1011.36 1011.04 1010.66 1010.36 1010.19 1010.21 1010.04 1009.83 1009.42 1008.85 1008.26 1007.89 1007.61 1007.44 1007.37 1007.51 1007.65 1008.38 1008.89 1008.75 1008.91 1008.95 1009.01 1009.14 1009.21 1009.55 1009.34 1010.11 1009.71 1010.05 1010.72 1011.42 1012.41 1013.56 1014.02 1013.96 1014.12 1014.72 1015.44 1015.42 1015.21 1015.55 1016.21
1011.69 1011.19 1010.80 1010.48 1010.13 1009.63 1009.23 1008.97 1008.77 1008.46 1007.78 1007.31 1007.22 1006.89 1006.69 1007.01 1007.36 1007.93 1008.30 1008.54 1008.44 1008.44 1008.31 1008.68 1009.09 1009.96 1009.85 1010.15 1009.83 1009.89 1010.69 1011.16 1012.13 1012.43 1011.95 1011.81 1012.21 1012.90 1013.82 1014.63 1015.22 1015.17 1015.52
1012.11 1011.51 1010.97 1010.60 1010.35 1010.24 1009.74 1009.18 1008.95 1008.36 1007.37 1006.44 1006.02 1005.67 1005.61 1006.29 1007.21 1007.31 1007.76 1008.25 1008.44 1008.54 1008.25 1008.89 1008.99 1009.70 1009.98 1010.50 1009.94 1009.92 1011.13 1011.06 1011.15 1010.87 1010.74 1010.71 1011.17 1012.08 1012.74 1014.26 1015.21 1015.76 1016.45
1011.86 1011.16 1010.72 1010.44 1009.92 1009.65 1009.27 1008.77 1008.01 1007.83 1007.25 1006.28 1005.48 1005.10 1004.66 1004.82 1006.10 1006.96 1007.10 1007.95 1008.23 1008.57 1008.80 1009.33 1009.76 1009.99 1010.21 1010.45 1010.18 1010.64 1010.43 1010.20 1010.26 1010.22 1009.99 1010.05 1010.76 1011.85 1012.67 1013.31 1015.18 1015.72 1016.52
1011.70 1010.97 1010.29 1009.76 1009.30 1008.86 1008.47 1008.07 1007.62 1006.97 1006.90 1006.48 1005.39 1004.83 1004.55 1004.36 1004.62 1005.39 1006.67 1006.91 1007.65 1007.99 1008.51 1008.89 1009.22 1009.35 1009.22 1010.21 1010.45 1009.82 1009.93 1009.62 1009.76 1009.70 1009.84 1010.09 1010.31 1011.21 1011.70 1012.67 1014.45 1015.56 1015.75
1010.96 1010.44 1009.86 1009.27 1008.70 1008.18 1007.82 1007.41 1007.08 1006.94 1006.75 1006.66 1006.44 1006.38 1005.33 1004.95 1005.56 1006.26 1006.67 1006.82 1007.20 1007.77 1008.18 1007.95 1008.17 1008.34 1008.87 1009.18 1009.19 1009.31 1009.33 1009.17 1008.75 1008.64 1009.23 1009.77 1010.05 1010.46 1011.03 1011.64 1013.09 1014.64 1015.34
1010.38 1009.87 1009.27 1008.72 1008.14 1007.57 1007.15 1006.82 1006.38 1006.10 1006.05 1006.03 1006.12 1006.18 1006.13 1006.19 1005.93 1006.39 1006.82 1007.07 1007.69 1008.28 1008.14 1007.60 1007.12 1006.71 1006.89 1007.34 1007.35 1007.49 1007.99 1008.17 1008.18 1008.20 1008.39 1008.78 1009.36 1009.77 1010.47 1010.67 1012.01 1013.37 1014.62
1009.82 1009.20 1008.61 1007.95 1007.50 1007.01 1006.55 1006.06 1005.94 1005.50 1005.13 1004.94 1005.04 1005.25 1005.37 1005.71 1005.96 1006.20 1006.57 1006.84 1006.56 1006.85 1006.58 1005.72 1005.29 1005.28 1005.39 1005.57 1005.78 1006.42 1006.38 1006.82 1007.11 1007.50 1007.97 1008.46 1008.50 1008.83 1009.25 1009.78 1010.20 1011.66 1013.25
1009.14 1008.44 1007.87 1007.30 1006.80 1006.32 1006.00 1005.66 1005.29 1004.85 1004.49 1004.26 1004.13 1004.05 1004.29 1004.66 1005.01 1005.37 1005.83 1005.99 1005.47 1005.07 1004.98 1004.75 1004.34 1004.21 1004.31 1004.62 1004.90 1005.41 1005.62 1005.82 1006.03 1006.39 1007.08 1007.57 1007.70 1008.14 1008.35 1008.91 1009.18 1009.85 1011.57
1008.42 1007.79 1007.24 1006.61 1006.02 1005.56 1005.21 1004.86 1004.53 1004.17 1003.85 1003.57 1003.25 1003.02 1003.17 1003.67 1003.80 1003.88 1004.19 1004.40 1004.41 1004.30 1004.33 1004.40 1003.82 1003.75 1003.54 1003.73 1004.24 1004.57 1004.64 1005.20 1005.63 1005.80 1006.18 1006.62 1006.96 1007.20 1007.39 1007.84 1008.24 1008.49 1010.25
1007.79 1007.03 1006.45 1005.90 1005.29 1004.82 1004.44 1004.07 1003.75 1003.39 1002.99 1002.67 1002.34 1002.38 1002.42 1002.47 1002.49 1002.64 1002.69 1002.79 1002.91 1003.09 1003.31 1003.44 1003.43 1003.22 1003.38 1003.80 1004.43 1004.61 1004.46 1004.40 1004.77 1005.20 1005.57 1005.94 1005.99 1006.16 1006.88 1007.07 1007.11 1007.78 1008.49
1007.34 1006.51 1005.80 1005.13 1004.54 1004.05 1003.63 1003.27 1002.93 1002.57 1002.15 1001.85 1001.71 1001.65 1001.70 1001.88 1001.77 1001.58 1001.59 1001.67 1001.79 1001.94 1002.05 1002.31 1002.53 1002.46 1002.73 1003.32 1004.02 1004.18 1004.26 1004.48 1004.29 1004.83 1005.10 1005.13 1005.11 1005.54 1005.88 1006.42 1006.47 1006.81 1007.98
1007.02 1006.23 1005.42 1004.68 1004.04 1003.43 1002.89 1002.47 1002.06 1001.67 1001.25 1000.92 1000.79 1000.75 1000.78 1000.80 1000.77 1000.66 1000.59 1000.56 1000.76 1000.97 1001.09 1001.38 1001.59 1001.84 1002.25 1002.71 1003.28 1003.82 1004.05 1003.99 1003.88 1004.09 1003.89 1004.77 1005.40 1005.40 1005.42 1005.67 1005.84 1006.05 1007.09
1006.93 1006.10 1005.27 1004.52 1003.78 1003.18 1002.49 1001.94 1001.38 1000.75 1000.18 999.80 999.75 999.72 999.73 999.68 999.61 999.61 999.62 999.67 999.83 1000.05 1000.24 1000.47 1000.54 1000.76 1001.03 1001.56 1002.18 1002.71 1003.16 1003.31 1003.58 1003.34 1003.91 1004.44 1004.98 1005.61 1005.80 1005.39 1005.62 1005.84 1006.57
1006.94 1006.13 1005.34 1004.52 1003.69 1002.95 1002.22 1001.56 1000.99 1000.41 999.87 999.17 998.88 998.79 998.71 998.66 998.60 998.56 998.62 998.88 999.04 999.32 999.28 999.65 1000.01 1000.32 1000.72 1001.05 1001.35 1001.72 1002.08 1002.72 1002.73 1002.73 1003.32 1004.01 1004.65 1005.10 1005.19 1005.17 1005.37 1005.78 1006.54
1007.08 1006.24 1005.41 1004.57 1003.72 1002.91 1002.13 1001.35 1000.71 1000.13 999.61 999.06 998.56 998.03 997.63 997.48 997.39 997.41 997.57 997.79 997.97 998.17 998.48 998.83 999.06 999.44 999.93 1000.38 1000.73 1000.64 1001.18 1001.75 1002.32 1002.84 1002.94 1003.51 1004.11 1004.45 1004.38 1004.83 1004.67 1005.53 1006.69
Thickness
5671 5675 5682 5687 5692 5696 5699 5706 5705 5706 5710 5710 5713 5709 5706 5704 5703 5701 5701 5699 5692 5690 5688 5684 5681 5684 5686 5686 5687 5686 5686 5683 5682 5677 5668 5657 5650 5644 5636 5631 5625 5617 5612
5657 5662 5664 5669 5673 5674 5677 5683 5689 5697 5701 5701 5705 5707 5706 5703 5700 5697 5695 5697 5692 5686 5682 5678 5678 5679 5678 5681 5682 5679 5680 5679 5678 5672 5659 5651 5642 5637 5630 5624 5619 5613 5607
5636 5643 5649 5653 5656 5658 5660 5664 5669 5675 5684 5691 5693 5698 5701 5699 5696 5694 5691 5688 5684 5683 5686 5682 5678 5676 5673 5676 5675 5675 5675 5672 5670 5670 5660 5650 5638 5631 5626 5620 5615 5610 5604
5620 5623 5627 5631 5636 5641 5645 5648 5652 5656 5660 5665 5673 5679 5682 5685 5687 5686 5685 5683 5680 5679 5676 5682 5677 5671 5668 5668 5668 5667 5668 5666 5665 5663 5660 5649 5643 5630 5626 5620 5612 5607 5603
5601 5605 5609 5613 5617 5622 5626 5632 5637 5638 5643 5645 5651 5655 5657 5660 5667 5670 5670 5666 5670 5660 5651 5643 5653 5659 5663 5663 5666 5662 5661 5658 5658 5659 5659 5656 5645 5632 5630 5624 5616 5607 5601
5581 5586 5590 5595 5599 5603 5607 5610 5613 5620 5626 5629 5631 5636 5639 5649 5648 5652 5649 5653 5665 5647 5642 5635 5629 5624 5637 5646 5654 5656 5657 5654 5655 5656 5655 5654 5653 5647 5640 5629 5616 5606 5602
5561 5565 5570 5576 5580 5584 5588 5591 5593 5596 5602 5608 5614 5619 5621 5627 5632 5636 5640 5650 5659 5647 5633 5636 5625 5622 5618 5627 5636 5644 5646 5649 5647 5648 5646 5642 5646 5649 5643 5629 5621 5613 5609
5545 5546 5549 5552 5557 5561 5565 5568 5572 5577 5580 5583 5590 5596 5605 5611 5612 5616 5624 5632 5640 5637 5641 5640 5634 5625 5618 5620 5629 5633 5640 5642 5641 5640 5640 5639 5639 5644 5641 5633 5627 5611 5601
5528 5529 5529 5529 5530 5533 5538 5543 5547 5553 5560 5567 5574 5576 5584 5597 5595 5598 5605 5613 5620 5624 5631 5636 5634 5623 5628 5623 5630 5631 5636 5640 5637 5629 5628 5626 5629 5633 5638 5631 5618 5610 5604
5518 5517 5515 5512 5510 5510 5513 5517 5522 5528 5537 5543 5552 5561 5567 5571 5577 5581 5585 5594 5602 5609 5615 5623 5620 5625 5622 5622 5636 5636 5634 5636 5635 5625 5620 5619 5623 5623 5626 5630 5627 5619 5613
5499 5499 5500 5499 5497 5495 5494 5496 5500 5508 5515 5524 5532 5541 5550 5556 5563 5563 5567 5579 5589 5596 5602 5608 5611 5604 5614 5616 5630 5635 5634 5635 5629 5620 5622 5628 5628 5624 5620 5623 5627 5623 5616
5482 5483 5483 5482 5481 5483 5485 5486 5486 5490 5499 5507 5510 5520 5531 5538 5541 5544 5550 5558 5569 5581 5591 5597 5597 5587 5593 5600 5612 5623 5622 5624 5619 5619 5630 5636 5634 5630 5626 5623 5621 5622 5617
5464 5464 5465 5464 5463 5461 5462 5466 5467 5473 5485 5495 5502 5509 5518 5522 5522 5529 5533 5539 5548 5559 5573 5576 5580 5578 5578 5581 5596 5606 5601 5611 5616 5622 5629 5635 5635 5630 5630 5619 5615 5614 5608
5453 5455 5453 5451 5452 5452 5452 5455 5461 5463 5470 5481 5491 5498 5508 5516 5513 5515 5524 5525 5530 5539 5548 5551 5555 5557 5562 5572 5582 5584 5597 5607 5612 5617 5624 5632 5631 5623 5621 5620 5608 5607 5605
5443 5445 5447 5447 5446 5446 5447 5449 5451 5457 5458 5465 5478 5486 5492 5502 5509 5508 5507 5516 5519 5524 5528 5535 5540 5546 5556 5561 5563 5579 5584 5599 5604 5610 5613 5618 5624 5617 5619 5619 5607 5602 5606
5437 5437 5439 5441 5441 5442 5441 5444 5444 5444 5445 5447 5450 5454 5471 5479 5480 5483 5490 5497 5503 5504 5510 5525 5533 5541 5544 5552 5562 5565 5573 5583 5597 5606 5607 5610 5614 5615 5613 5616 5610 5603 5601
5429 5428 5430 5433 5436 5438 5438 5439 5442 5442 5441 5442 5443 5444 5449 5456 5465 5467 5471 5477 5479 5483 5495 5511 5524 5538 5547 5553 5558 5565 5570 5579 5588 5594 5601 5604 5609 5612 5606 5613 5611 5606 5599
5419 5421 5425 5429 5431 5434 5435 5438 5437 5439 5443 5447 5444 5443 5445 5447 5452 5456 5460 5463 5479 5484 5498 5513 5524 5531 5541 5547 5554 5557 5567 5573 5579 5586 5588 5592 5602 5608 5608 5608 5615 5611 5602
5415 5417 5420 5424 5427 5430 5431 5433 5434 5438 5441 5443 5445 5446 5446 5445 5446 5449 5451 5460 5475 5487 5496 5507 5518 5527 5532 5537 5543 5545 5553 5562 5572 5577 5581 5585 5594 5597 5604 5603 5610 5609 5605
5418 5418 5419 5423 5427 5429 5430 5431 5433 5436 5439 5440 5444 5449 5449 5446 5451 5458 5460 5464 5470 5479 5484 5491 5507 5514 5523 5529 5532 5537 5545 5549 5555 5563 5570 5575 5582 5590 5598 5599 5605 5612 5608
5423 5423 5422 5424 5427 5429 5430 5432 5435 5438 5440 5443 5446 5447 5445 5451 5454 5457 5461 5466 5471 5476 5480 5486 5493 5502 5509 5513 5514 5520 5532 5542 5547 5552 5557 5563 5572 5582 5585 5593 5601 5607 5611
5426 5428 5429 5430 5432 5433 5434 5436 5438 5441 5443 5445 5445 5447 5444 5449 5453 5458 5461 5463 5466 5470 5476 5480 5485 5493 5499 5502 5505 5512 5520 5525 5534 5537 5543 5554 5563 5571 5578 5581 5590 5601 5601
5426 5429 5432 5434 5436 5438 5440 5440 5442 5443 5446 5449 5450 5450 5451 5451 5454 5458 5461 5464 5465 5467 5471 5474 5478 5483 5486 5488 5489 5492 5497 5507 5519 5526 5536 5540 5543 5557 5566 5573 5581 5591 5594
5423 5427 5431 5434 5437 5438 5441 5443 5445 5449 5454 5455 5454 5454 5455 5456 5459 5460 5463 5465 5468 5470 5472 5474 5479 5482 5486 5486 5486 5485 5487 5492 5497 5511 5518 5526 5533 5536 5547 5562 5570 5578 5583
5418 5421 5424 5428 5432 5436 5439 5442 5444 5447 5451 5456 5458 5458 5457 5459 5460 5463 5466 5466 5468 5469 5474 5475 5476 5477 5478 5479 5480 5476 5475 5475 5484 5495 5505 5513 5521 5528 5539 5550 5558 5565 5571
5415 5417 5419 5422 5425 5429 5432 5435 5438 5441 5444 5448 5452 5458 5463 5464 5466 5468 5469 5471 5472 5474 5475 5475 5477 5477 5476 5474 5472 5471 5468 5468 5472 5478 5490 5502 5512 5523 5535 5543 5554 5555 5559